Find Youxi

NORAD ID: 69097 Int'l Des: NNA 2026-106 Owner: KAIYUN Country: CN operational
LEOCIRCULARRETROGRADESSO

現在のビュー

3D地球を読み込み中...

Youxiについて

説明を読み込み中...

次回通過

Passes for default location (London). Set your location on the main map for personalized predictions.

高度履歴

Loading altitude history...

軌道要素

1 69097U 26106A 26155.63137572 .00009052 00000-0 54389-3 0 9997
2 69097 97.5095 237.9434 0013466 203.5034 156.5582 15.11037132 3084
Epoch: Jun 4, 2026 • Age: 89 hours

現在のステータス

高度 545.2 km
速度 7.59 km/s
衛星直下点 27.55°N, 143.2°W
打ち上げ日 May 15, 2026
運用期間 24 days
タイプ other

技術仕様

分類 Payload
質量 50.00 kg
乾燥質量 50.00 kg
総質量 50.00 kg
長さ 0.50 m
直径 0.30 m
スパン 0.50 m
形状 Box
製造者 XUNQ
バスタイプ XT-100
フェーズステータス In Orbit
所有者/国 KAIYUN/CN

Most Searched